Weather Roundup
Issued by NWS

Home | Current Version | Previous Version | Graphics & Text | Print | Product List | Glossary Off
Versions: 1 2 3 4 5 6 7 8 9 10 11 12 13 14 15 16 17 18 19 20 21 22 23 24 25 26 27 28 29 30 31 32 33 34 35 36 37 38 39 40 41 42 43 44 45 46 47 48 49 50

000
NZUS93 KARX 160510
HRRWXR

CURRENT HOURLY OBSERVATIONS ACROSS
MUCH OF THE UPPER MISSISSIPPI VALLEY
NATIONAL WEATHER SERVICE LA CROSSE WI
1200 AM CDT WED AUG 16 2017


...SOUTHEAST MINNESOTA...


CITY           SKY/WX    TMP DP  RH WIND       PRES   REMARKS
ROCHESTER      CLOUDY    64  61  90 SE9       29.96S
ROCHESTER/MAYO CLOUDY    65  61  87 SE8       29.96S
WINONA         CLOUDY    63  61  94 CALM      29.96S
AUSTIN         MOCLDY    63  61  94 SE3       29.95S
ALBERT LEA     MOCLDY    66  64  94 SE9       29.93F
DODGE CENTER   CLOUDY    63  61  94 SE6       29.96S
PRESTON        CLOUDY    64  60  85 SE8       29.97F
OWATONNA       LGT RAIN  64  61  88 SE9       29.94S
FARIBAULT      CLOUDY    66  61  82 E10       29.94S
$$

...ELSEWHERE IN MINNESOTA...


CITY           SKY/WX    TMP DP  RH WIND       PRES   REMARKS
MINNEAPOLIS    CLOUDY    67  61  81 SE8       29.94S
INTNL FALLS    CLOUDY    67  58  72 S5        29.96R
DULUTH         CLOUDY    57  57 100 E8        30.01S
RED WING       CLOUDY    66  61  82 E5        29.93S
REDWOOD FALLS  CLOUDY    66  61  84 SE8       29.90S
MANKATO        LGT RAIN  64  63  94 SE10      29.93R
WORTHINGTON    CLOUDY    65  64  97 E7        29.89S
FAIRMONT       CLOUDY    65  63  93 SE8       29.91S
$$

...SOUTHWEST WISCONSIN...


CITY           SKY/WX    TMP DP  RH WIND       PRES   REMARKS
LA CROSSE      CLOUDY    68  64  87 E6        29.96S
PRAIRIE DU CHI PTCLDY    65  61  88 SE3       29.96F
BOSCOBEL       CLOUDY    62  60  93 CALM      29.98S FOG
LONE ROCK      PTCLDY    62  62 100 E5        29.99S
PLATTEVILLE    CLEAR     65  65 100 E8        29.99S
FORT MC COY    CLOUDY    58  58  98 E3        29.99F
CAMP DOUGLAS   CLOUDY    58  58 100 E5        30.00S
MAUSTON-NEW LI CLOUDY    60  59  97 CALM      30.00S
VIROQUA        FAIR      64  63  96 E7        30.00S
WIS DELLS      CLOUDY    64  59  82 SE5       30.02R
$$

...ELSEWHERE IN WISCONSIN...


CITY           SKY/WX    TMP DP  RH WIND       PRES   REMARKS
MILWAUKEE      MOCLDY    66  60  81 NE5       30.01F
MADISON        PTCLDY    64  61  90 SE7       30.01S
GREEN BAY      CLOUDY    60  60 100 CALM      30.03R
EAU CLAIRE     MOCLDY    61  58  90 NE5       29.97S
BLACK RVR FLS  FAIR      56  56 100 CALM      29.99R
MEDFORD        CLOUDY    56  54  90 E6        30.02S
WAUSAU         MOCLDY    61  58  90 E3        30.01S
WIS RAPIDS     PTCLDY    62  58  86 SE6       30.03R
MARSHFIELD     PTCLDY    61  56  83 E5        30.01R
RICE LAKE      CLOUDY    58  57  97 CALM      30.00F FOG
$$

...NORTHEAST IOWA...


CITY           SKY/WX    TMP DP  RH WIND       PRES   REMARKS
WATERLOO       MOCLDY    67  62  84 E9        29.93R
DUBUQUE        CLEAR     66  63  90 E9        29.98S
DECORAH        CLOUDY    66  63  88 SE7       29.96F
MASON CITY     PTCLDY    65  63  93 SE8       29.95S
CHARLES CITY   CLOUDY    64  64 100 SE8       29.95S
OELWEIN        CLOUDY    66  66 100 E8        29.96R
$$

...ELSEWHERE IN IOWA...


CITY           SKY/WX    TMP DP  RH WIND       PRES   REMARKS
DES MOINES     CLOUDY    70  68  93 E7        29.91F
IOWA CITY      CLEAR     71  66  84 E6        29.95S
FORT DODGE     CLOUDY    66  64  94 S7        29.88F
MARSHALLTOWN   PTCLDY    65  65 100 E8        29.92S
CEDAR RAPIDS   CLEAR     65  65 100 E8        29.94S
$$

...NORTHERN ILLINOIS...


CITY           SKY/WX    TMP DP  RH WIND       PRES   REMARKS
CHICAGO-OHARE  PTCLDY    69  62  78 NE6       30.00S
CHICAGO-MIDWAY PTCLDY    72  64  76 NE8       30.00R
MOLINE         CLOUDY    72  66  81 E6        29.96R
ROCKFORD       MOCLDY    67  60  78 SE6       30.01S
PEORIA         PTCLDY    77  70  79 E8        29.96R
$$

NOTE: "FAIR" INDICATES FEW OR NO CLOUDS BELOW 12,000 FEET WITH NO
SIGNIFICANT WEATHER AND/OR OBSTRUCTIONS TO VISIBILITY. WIND
SPEEDS ARE IN MILES-PER-HOUR.




USA.gov is the U.S. government's official web portal to all federal, state and local government web resources and services.